Time,TemperatureF,DewpointF,PressureIn,WindDirection,WindDirectionDegrees,WindSpeedMPH,WindSpeedGustMPH,Humidity,HourlyPrecipIn,Conditions,Clouds,dailyrainin,SoftwareType,DateUTC
2013-10-30 00:03:00,36.6,28.0,30.36,North,4,0.0,0.0,71,0.00,,,0.00,weatherlink.com 1.10,2013-10-30 04:03:00,
2013-10-30 00:17:00,36.7,28.0,30.35,North,4,0.0,0.0,70,0.00,,,0.00,weatherlink.com 1.10,2013-10-30 04:17:00,
2013-10-30 00:31:00,36.8,27.0,30.35,North,5,0.0,0.0,68,0.00,,,0.00,weatherlink.com 1.10,2013-10-30 04:31:00,
2013-10-30 00:46:00,37.0,28.0,30.34,North,4,0.0,0.0,70,0.00,,,0.00,weatherlink.com 1.10,2013-10-30 04:46:00,
2013-10-30 01:00:00,37.1,28.0,30.35,North,5,0.0,0.0,69,0.00,,,0.00,weatherlink.com 1.10,2013-10-30 05:00:00,
2013-10-30 01:15:00,37.2,28.0,30.34,North,5,0.0,0.0,70,0.00,,,0.00,weatherlink.com 1.10,2013-10-30 05:15:00,
2013-10-30 01:29:00,37.1,28.0,30.34,North,4,0.0,0.0,70,0.00,,,0.00,weatherlink.com 1.10,2013-10-30 05:29:00,
2013-10-30 01:44:00,37.2,29.0,30.34,North,4,0.0,0.0,72,0.00,,,0.00,weatherlink.com 1.10,2013-10-30 05:44:00,
2013-10-30 01:58:00,37.3,29.0,30.34,North,4,0.0,1.0,72,0.00,,,0.00,weatherlink.com 1.10,2013-10-30 05:58:00,
2013-10-30 02:12:00,37.3,28.0,30.33,North,4,0.0,1.0,69,0.00,,,0.00,weatherlink.com 1.10,2013-10-30 06:12:00,
2013-10-30 02:27:00,37.2,28.0,30.33,North,5,0.0,1.0,68,0.00,,,0.00,weatherlink.com 1.10,2013-10-30 06:27:00,
2013-10-30 02:41:00,37.2,29.0,30.33,North,5,0.0,0.0,72,0.00,,,0.00,weatherlink.com 1.10,2013-10-30 06:41:00,
2013-10-30 02:56:00,37.1,30.0,30.33,North,5,0.0,0.0,74,0.00,,,0.00,weatherlink.com 1.10,2013-10-30 06:56:00,
2013-10-30 03:10:00,36.9,31.0,30.32,North,4,0.0,1.0,79,0.00,,,0.00,weatherlink.com 1.10,2013-10-30 07:10:00,
2013-10-30 03:25:00,36.6,32.0,30.31,East,84,0.0,0.0,83,0.00,,,0.00,weatherlink.com 1.10,2013-10-30 07:25:00,
2013-10-30 03:39:00,36.5,31.0,30.32,East,84,0.0,0.0,81,0.00,,,0.00,weatherlink.com 1.10,2013-10-30 07:39:00,
2013-10-30 03:53:00,36.5,32.0,30.32,East,84,0.0,1.0,82,0.00,,,0.00,weatherlink.com 1.10,2013-10-30 07:53:00,
2013-10-30 04:08:00,36.5,31.0,30.31,East,84,0.0,0.0,80,0.00,,,0.00,weatherlink.com 1.10,2013-10-30 08:08:00,
2013-10-30 04:22:00,36.5,32.0,30.32,East,84,0.0,0.0,83,0.00,,,0.00,weatherlink.com 1.10,2013-10-30 08:22:00,
2013-10-30 04:37:00,36.3,33.0,30.32,East,84,0.0,0.0,87,0.00,,,0.00,weatherlink.com 1.10,2013-10-30 08:37:00,
2013-10-30 04:51:00,36.0,33.0,30.32,East,84,0.0,0.0,87,0.00,,,0.00,weatherlink.com 1.10,2013-10-30 08:51:00,
2013-10-30 05:06:00,35.8,33.0,30.32,East,84,0.0,0.0,90,0.01,,,0.01,weatherlink.com 1.10,2013-10-30 09:06:00,
2013-10-30 05:20:00,35.8,34.0,30.32,East,84,0.0,0.0,92,0.01,,,0.02,weatherlink.com 1.10,2013-10-30 09:20:00,
2013-10-30 05:34:00,35.8,34.0,30.32,East,84,0.0,0.0,93,0.02,,,0.02,weatherlink.com 1.10,2013-10-30 09:34:00,
2013-10-30 05:49:00,35.9,34.0,30.32,East,84,0.0,1.0,94,0.02,,,0.02,weatherlink.com 1.10,2013-10-30 09:49:00,
2013-10-30 06:03:00,35.9,35.0,30.32,East,84,0.0,0.0,95,0.01,,,0.02,weatherlink.com 1.10,2013-10-30 10:03:00,
2013-10-30 06:18:00,36.1,35.0,30.32,East,84,0.0,1.0,95,0.01,,,0.02,weatherlink.com 1.10,2013-10-30 10:18:00,
2013-10-30 06:32:00,36.4,35.0,30.31,East,84,0.0,0.0,95,0.00,,,0.02,weatherlink.com 1.10,2013-10-30 10:32:00,
2013-10-30 06:46:00,36.4,35.0,30.31,East,84,0.0,1.0,95,0.00,,,0.02,weatherlink.com 1.10,2013-10-30 10:46:00,
2013-10-30 07:01:00,36.4,35.0,30.31,East,84,0.0,0.0,95,0.00,,,0.02,weatherlink.com 1.10,2013-10-30 11:01:00,
2013-10-30 07:15:00,36.5,35.0,30.31,East,84,0.0,0.0,95,0.00,,,0.02,weatherlink.com 1.10,2013-10-30 11:15:00,
2013-10-30 07:30:00,36.6,35.0,30.31,East,84,0.0,0.0,95,0.00,,,0.02,weatherlink.com 1.10,2013-10-30 11:30:00,
2013-10-30 07:44:00,36.5,35.0,30.30,ESE,103,0.0,1.0,95,0.00,,,0.02,weatherlink.com 1.10,2013-10-30 11:44:00,
2013-10-30 07:58:00,36.5,35.0,30.30,ESE,103,0.0,1.0,95,0.00,,,0.02,weatherlink.com 1.10,2013-10-30 11:58:00,
2013-10-30 08:13:00,36.6,36.0,30.32,ESE,103,0.0,0.0,96,0.00,,,0.02,weatherlink.com 1.10,2013-10-30 12:13:00,
2013-10-30 08:27:00,36.8,36.0,30.31,ESE,103,0.0,0.0,96,0.00,,,0.02,weatherlink.com 1.10,2013-10-30 12:27:00,
2013-10-30 08:41:00,36.9,36.0,30.32,NNE,18,0.0,1.0,95,0.00,,,0.02,weatherlink.com 1.10,2013-10-30 12:41:00,
2013-10-30 08:56:00,37.0,36.0,30.32,NNE,18,0.0,0.0,96,0.00,,,0.02,weatherlink.com 1.10,2013-10-30 12:56:00,
2013-10-30 09:10:00,37.2,36.0,30.32,NNE,18,0.0,0.0,95,0.00,,,0.02,weatherlink.com 1.10,2013-10-30 13:10:00,
2013-10-30 09:25:00,37.5,36.0,30.33,NNE,18,0.0,1.0,96,0.00,,,0.02,weatherlink.com 1.10,2013-10-30 13:25:00,
2013-10-30 09:39:00,37.8,36.0,30.33,NNE,18,0.0,1.0,95,0.00,,,0.02,weatherlink.com 1.10,2013-10-30 13:39:00,
2013-10-30 09:53:00,38.1,37.0,30.33,NNE,18,0.0,0.0,95,0.00,,,0.02,weatherlink.com 1.10,2013-10-30 13:53:00,
2013-10-30 10:08:00,38.7,37.0,30.33,NNE,18,0.0,1.0,95,0.00,,,0.02,weatherlink.com 1.10,2013-10-30 14:08:00,
2013-10-30 10:22:00,39.4,38.0,30.33,NNE,18,0.0,1.0,95,0.00,,,0.02,weatherlink.com 1.10,2013-10-30 14:22:00,
2013-10-30 10:37:00,40.2,39.0,30.32,ESE,112,0.0,1.0,94,0.00,,,0.02,weatherlink.com 1.10,2013-10-30 14:37:00,
2013-10-30 10:51:00,41.5,39.0,30.32,ESE,109,0.0,1.0,92,0.00,,,0.02,weatherlink.com 1.10,2013-10-30 14:51:00,
2013-10-30 11:06:00,42.8,40.0,30.32,ENE,58,0.0,1.0,91,0.00,,,0.02,weatherlink.com 1.10,2013-10-30 15:06:00,
2013-10-30 11:20:00,43.5,40.0,30.31,East,97,0.0,1.0,88,0.00,,,0.02,weatherlink.com 1.10,2013-10-30 15:20:00,
2013-10-30 11:35:00,44.6,42.0,30.31,ESE,117,0.0,1.0,90,0.00,,,0.02,weatherlink.com 1.10,2013-10-30 15:35:00,
2013-10-30 11:49:00,46.1,42.0,30.30,SW,229,0.0,1.0,85,0.00,,,0.02,weatherlink.com 1.10,2013-10-30 15:49:00,
2013-10-30 12:04:00,46.9,42.0,30.30,WSW,238,0.0,1.0,82,0.00,,,0.02,weatherlink.com 1.10,2013-10-30 16:04:00,
2013-10-30 12:18:00,48.1,42.0,30.29,SE,128,0.0,1.0,80,0.00,,,0.02,weatherlink.com 1.10,2013-10-30 16:18:00,
2013-10-30 12:33:00,48.8,42.0,30.28,SW,221,0.0,1.0,77,0.00,,,0.02,weatherlink.com 1.10,2013-10-30 16:33:00,
2013-10-30 12:47:00,49.3,43.0,30.28,West,261,1.0,1.0,78,0.00,,,0.02,weatherlink.com 1.10,2013-10-30 16:47:00,
2013-10-30 13:02:00,50.0,43.0,30.27,ESE,103,0.0,2.0,76,0.00,,,0.02,weatherlink.com 1.10,2013-10-30 17:02:00,
2013-10-30 13:16:00,50.5,42.0,30.27,ESE,119,1.0,2.0,72,0.00,,,0.02,weatherlink.com 1.10,2013-10-30 17:16:00,
2013-10-30 13:31:00,50.6,41.0,30.26,NNE,29,0.0,2.0,70,0.00,,,0.02,weatherlink.com 1.10,2013-10-30 17:31:00,
2013-10-30 13:45:00,51.3,41.0,30.25,NW,309,0.0,3.0,69,0.00,,,0.02,weatherlink.com 1.10,2013-10-30 17:45:00,
2013-10-30 13:59:00,51.6,41.0,30.25,North,356,1.0,1.0,68,0.00,,,0.02,weatherlink.com 1.10,2013-10-30 17:59:00,
2013-10-30 14:14:00,52.1,41.0,30.24,NNE,16,1.0,2.0,66,0.00,,,0.02,weatherlink.com 1.10,2013-10-30 18:14:00,
2013-10-30 14:28:00,52.8,41.0,30.24,North,4,0.0,4.0,65,0.00,,,0.02,weatherlink.com 1.10,2013-10-30 18:28:00,
2013-10-30 14:43:00,53.2,41.0,30.24,NNW,348,1.0,3.0,64,0.00,,,0.02,weatherlink.com 1.10,2013-10-30 18:43:00,
2013-10-30 14:57:00,53.8,41.0,30.24,East,96,0.0,2.0,63,0.00,,,0.02,weatherlink.com 1.10,2013-10-30 18:57:00,
2013-10-30 15:12:00,54.0,42.0,30.23,North,359,1.0,2.0,64,0.00,,,0.02,weatherlink.com 1.10,2013-10-30 19:12:00,
2013-10-30 15:26:00,54.1,42.0,30.23,ENE,58,0.0,3.0,64,0.00,,,0.02,weatherlink.com 1.10,2013-10-30 19:26:00,
2013-10-30 15:41:00,54.4,41.0,30.22,North,9,0.0,2.0,61,0.00,,,0.02,weatherlink.com 1.10,2013-10-30 19:41:00,
2013-10-30 15:55:00,54.0,41.0,30.22,North,357,2.0,3.0,62,0.00,,,0.02,weatherlink.com 1.10,2013-10-30 19:55:00,
2013-10-30 16:10:00,53.8,42.0,30.23,NW,306,0.0,3.0,64,0.00,,,0.02,weatherlink.com 1.10,2013-10-30 20:10:00,
2013-10-30 16:38:00,52.6,43.0,30.21,ENE,62,0.0,2.0,69,0.00,,,0.02,weatherlink.com 1.10,2013-10-30 20:38:00,
2013-10-30 16:53:00,52.1,42.0,30.21,NE,44,0.0,3.0,69,0.00,,,0.02,weatherlink.com 1.10,2013-10-30 20:53:00,
2013-10-30 17:07:00,51.4,42.0,30.22,ENE,68,0.0,2.0,69,0.00,,,0.02,weatherlink.com 1.10,2013-10-30 21:07:00,
2013-10-30 17:22:00,50.5,41.0,30.21,ENE,68,0.0,1.0,71,0.00,,,0.02,weatherlink.com 1.10,2013-10-30 21:22:00,
2013-10-30 17:36:00,49.7,41.0,30.22,ENE,68,0.0,0.0,72,0.00,,,0.02,weatherlink.com 1.10,2013-10-30 21:36:00,
2013-10-30 17:50:00,48.9,41.0,30.22,ENE,68,0.0,0.0,74,0.00,,,0.02,weatherlink.com 1.10,2013-10-30 21:50:00,
2013-10-30 18:05:00,47.6,40.0,30.22,ENE,68,0.0,0.0,76,0.00,,,0.02,weatherlink.com 1.10,2013-10-30 22:05:00,
2013-10-30 18:19:00,46.3,40.0,30.22,ENE,68,0.0,0.0,79,0.00,,,0.02,weatherlink.com 1.10,2013-10-30 22:19:00,
2013-10-30 18:33:00,45.4,40.0,30.23,ENE,68,0.0,0.0,81,0.00,,,0.02,weatherlink.com 1.10,2013-10-30 22:33:00,
2013-10-30 18:48:00,44.6,40.0,30.23,ENE,68,0.0,0.0,84,0.00,,,0.02,weatherlink.com 1.10,2013-10-30 22:48:00,
2013-10-30 19:02:00,43.6,39.0,30.23,ENE,68,0.0,0.0,85,0.00,,,0.02,weatherlink.com 1.10,2013-10-30 23:02:00,
2013-10-30 19:17:00,42.8,39.0,30.24,ENE,68,0.0,0.0,87,0.00,,,0.02,weatherlink.com 1.10,2013-10-30 23:17:00,
2013-10-30 19:31:00,42.2,39.0,30.24,ENE,68,0.0,0.0,88,0.00,,,0.02,weatherlink.com 1.10,2013-10-30 23:31:00,
2013-10-30 19:45:00,41.5,39.0,30.23,ENE,68,0.0,0.0,90,0.00,,,0.02,weatherlink.com 1.10,2013-10-30 23:45:00,
2013-10-30 19:59:00,40.8,38.0,30.23,ENE,68,0.0,0.0,91,0.00,,,0.02,weatherlink.com 1.10,2013-10-30 23:59:00,
2013-10-30 20:14:00,40.3,38.0,30.23,ENE,68,0.0,0.0,92,0.00,,,0.02,weatherlink.com 1.10,2013-10-31 00:14:00,
2013-10-30 20:28:00,40.4,39.0,30.23,ENE,68,0.0,0.0,93,0.00,,,0.02,weatherlink.com 1.10,2013-10-31 00:28:00,
2013-10-30 20:43:00,41.0,39.0,30.22,ENE,68,0.0,0.0,93,0.00,,,0.02,weatherlink.com 1.10,2013-10-31 00:43:00,
2013-10-30 20:57:00,40.7,39.0,30.22,ENE,68,0.0,0.0,93,0.00,,,0.02,weatherlink.com 1.10,2013-10-31 00:57:00,
2013-10-30 21:12:00,40.0,38.0,30.21,ENE,68,0.0,0.0,93,0.00,,,0.02,weatherlink.com 1.10,2013-10-31 01:12:00,
2013-10-30 21:26:00,39.4,38.0,30.22,ENE,68,0.0,0.0,94,0.00,,,0.02,weatherlink.com 1.10,2013-10-31 01:26:00,
2013-10-30 21:40:00,39.4,38.0,30.22,ENE,68,0.0,1.0,95,0.00,,,0.02,weatherlink.com 1.10,2013-10-31 01:40:00,
2013-10-30 21:54:00,39.3,38.0,30.22,ENE,68,0.0,0.0,94,0.00,,,0.02,weatherlink.com 1.10,2013-10-31 01:54:00,
2013-10-30 22:09:00,39.1,38.0,30.22,ENE,68,0.0,0.0,95,0.00,,,0.02,weatherlink.com 1.10,2013-10-31 02:09:00,
2013-10-30 22:23:00,38.8,37.0,30.22,ENE,68,0.0,0.0,95,0.00,,,0.02,weatherlink.com 1.10,2013-10-31 02:23:00,
2013-10-30 22:38:00,38.2,37.0,30.22,ENE,68,0.0,0.0,95,0.00,,,0.02,weatherlink.com 1.10,2013-10-31 02:38:00,
2013-10-30 22:52:00,37.8,37.0,30.22,ENE,68,0.0,0.0,96,0.00,,,0.02,weatherlink.com 1.10,2013-10-31 02:52:00,
2013-10-30 23:07:00,37.5,36.0,30.22,ENE,68,0.0,0.0,96,0.00,,,0.02,weatherlink.com 1.10,2013-10-31 03:07:00,
2013-10-30 23:21:00,37.1,36.0,30.22,ENE,68,0.0,0.0,96,0.00,,,0.02,weatherlink.com 1.10,2013-10-31 03:21:00,
2013-10-30 23:36:00,37.1,36.0,30.21,ENE,68,0.0,0.0,97,0.00,,,0.02,weatherlink.com 1.10,2013-10-31 03:36:00,
2013-10-30 23:50:00,37.2,36.0,30.20,ENE,68,0.0,0.0,97,0.00,,,0.02,weatherlink.com 1.10,2013-10-31 03:50:00,